Location: Ferchesar
(52.6477°N, 12.4298°E)
Time: 15:34:45
(UTC+01:00)

AO-73 - Pass Details

Date: 24 October 2021
Orbit: 581 x 660 km, 97.6° (Epoch: 04 December)

Event Time Altitude Azimuth Distance (km) Brightness Sun altitude
Rises 06:01:17 0° 14° (NNE) 2,821 ? -17.4°
Reaches altitude 10° 06:03:26 10° 14° (NNE) 1,920 ? -17.1°
Maximum altitude 06:07:36 89° 105° (ESE) 598 ? -16.5°
Drops below altitude 10° 06:11:48 10° 195° (SSW) 1,933 ? -15.8°
Sets 06:13:59 0° 196° (SSW) 2,842 ? -15.5°
